Location: Klein M�hlingen
(51.9472°N, 11.7453°E)
Time: 10:23:40
(UTC+00:00)

Envisat - Pass Details

Date: 06 October 2021
Orbit: 764 x 766 km, 98.2° (Epoch: 26 October)

Event Time Altitude Azimuth Distance (km) Brightness Sun altitude
Rises 03:45:43 0° 20° (NNE) 3,245 6.7 -15.6°
Reaches altitude 10° 03:48:14 10° 29° (NNE) 2,313 6.1 -15.3°
Maximum altitude 03:52:53 35° 95° (E) 1,219 4.7 -14.6°
Drops below altitude 10° 03:57:31 10° 161° (SSE) 2,297 5.6 -13.9°
Sets 04:00:00 0° 171° (S) 3,218 6.2 -13.5°
